Weather in Voskresenskoe

Russia / Tula Oblast     54°28′13″N   38°13′12″E
temp.,
°C
wind,
m/s
gust,
m/s
humid.,
%
clouds,
%
prec.,
mm/h
press.,
hPa
HPBL,
m
12 april, mon
mon1200:00+7e3469100 0.0 103248
03:00+5ene4974100 0.0 1033153
06:00+4ene51474100 0.0 1033312
09:00+7e7145199 0.0 1032553
12:00+11e7965100 0.0 1030639
15:00+13e7967100 0.0 1029681
18:00+13e51173100 0.0 1028653
21:00+10e51389100 0.0 1028275
13 april, tue
tue1300:00+9ese41392100 0.0 1027244
03:00+8se41288100 0.0 1027181
06:00+7se41279100 0.0 1027187
09:00+12sse5105958 0.0 1026331
12:00+18sse694240 0.0 1025792
15:00+19sse783364 0.0 10251635
18:00+17se474452 0.0 1024196
21:00+13se4115898 0.0 1024179
14 april, wed
wed1400:00+11sse413600 0.0 1024226
03:00+9sse4106665 0.0 1023164
06:00+8sse3770100 0.0 1023108
09:00+12sse5957100 0.0 1022323
12:00+17sse6841100 0.0 1021783
15:00+19sse693333 0.0 10201617
18:00+17sse4742100 0.0 1019181
21:00+12se4757100 0.0 101999
15 april, thu
thu1500:00+10se3763100 0.0 1018105
03:00+9s336876 0.0 101834
06:00+8sse2269100 0.0 101811
09:00+12sse2356100 0.0 1018185
12:00+16sse3443100 0.0 1017717
15:00+19sse2334100 0.0 10161840
18:00+16e3447100 0.0 101569
21:00+13e3352100 0.0 101532
16 april, fri
fri1600:00+11e3661100 0.0 1015100
03:00+10e227293 0.0 101529
06:00+10ene3376100 0.2 101439
09:00+13ene576282 0.3 1015404
12:00+16ene675195 0.1 1015983
15:00+15ne7959100 0.2 10161100
18:00+10nne91376100 1.6 1018672
21:00+7ne91675100 1.6 1021760